{"data":{"norad_id":49262,"epoch":"2026-05-25T03:51:05.344992Z","epoch_age_seconds":75278,"freshness":"FRESH","line1":"1 49262U 21088C   26145.16047853  .00014709  00000+0  42675-3 0  9991","line2":"2 49262  97.3830 210.8096 0010766 158.0515 202.1192 15.35564691256988","mean_motion":15.35564691,"eccentricity":0.0010766,"inclination_deg":97.383,"raan_deg":210.8096,"arg_perigee_deg":158.0515,"mean_anomaly_deg":202.1192,"bstar":0.00042675,"rev_number":25698,"period_min":93.776576684779,"perigee_km":451.88259722943,"apogee_km":466.60484539857,"semimajor_km":6837.380721314,"source":"CELESTRAK","updated_at":"2026-05-25T13:37:57.137895Z"}}